FW7227 Weather Reports


time (UTC)temp
F
wind
direction
speed
knots
gust
knots
rain 1hr
in
rain 24hr
in
rain mn
in
humidity
%
barometer
mb
20260905095557 66 246 8.7 18.2 0.00 0.55 0.00 67 1017.0
20260905095056 66 246 8.7 18.2 0.00 0.55 0.00 67 1016.8
20260905094607 66 252 10.4 20.9 0.00 0.55 0.00 67 1017.0
20260905094056 66 242 9.6 21.7 0.00 0.55 0.00 69 1017.0
20260905093556 66 238 12.2 21.7 0.00 0.55 0.00 68 1017.0
20260905093103 65 234 8.7 20.9 0.00 0.55 0.00 72 1016.9
20260905092556 65 270 8.7 20.9 0.00 0.55 0.00 70 1016.9
20260905092055 65 258 11.3 19.1 0.00 0.55 0.00 71 1016.9
20260905091629 65 246 11.3 19.1 0.00 0.55 0.00 71 1016.8
20260905091056 64 249 6.1 19.1 0.00 0.55 0.00 73 1016.7
20260905090556 64 234 9.6 19.1 0.00 0.55 0.00 73 1016.6
20260905085557 63 259 7.0 20.9 0.00 0.55 0.00 76 1016.7
20260905085057 63 292 8.7 20.9 0.00 0.55 0.00 76 1016.8
20260905084619 63 242 10.4 20.0 0.00 0.55 0.00 75 1016.9
20260905084056 63 257 9.6 19.1 0.00 0.55 0.00 75 1016.9
20260905083556 63 286 8.7 17.4 0.00 0.55 0.00 74 1016.8
20260905083101 63 272 7.8 20.0 0.00 0.55 0.00 74 1016.7
20260905082557 64 279 8.7 20.0 0.00 0.55 0.00 73 1016.5
20260905082056 64 252 8.7 17.4 0.00 0.55 0.00 74 1016.4
20260905081559 64 224 7.8 16.5 0.00 0.55 0.00 74 1016.4
20260905081057 64 239 8.7 19.1 0.00 0.55 0.00 76 1016.4
20260905080556 63 263 9.6 19.1 0.00 0.55 0.00 76 1016.4
20260905080109 63 265 10.4 19.1 0.00 0.55 0.00 76 1016.3
20260905075559 63 268 9.6 18.2 0.00 0.55 0.00 76 1016.3
20260905075057 63 282 7.0 16.5 0.00 0.55 0.00 77 1016.2
20260905074601 62 255 7.8 16.5 0.00 0.55 0.00 77 1016.3
20260905074056 62 262 8.7 15.6 0.00 0.55 0.00 77 1016.2
20260905073556 62 252 7.0 15.6 0.00 0.55 0.00 78 1016.2
20260905073100 62 285 5.2 16.5 0.00 0.55 0.00 79 1016.1
20260905072558 62 272 8.7 16.5 0.00 0.55 0.00 78 1016.1
20260905072057 62 252 7.8 16.5 0.00 0.55 0.00 79 1016.0
20260905071605 61 246 7.0 13.9 0.00 0.55 0.00 80 1015.9
20260905071058 61 240 7.0 13.9 0.00 0.55 0.00 80 1016.0
20260905070556 61 279 7.0 13.9 0.00 0.55 0.00 81 1015.9
20260905070106 60 238 6.1 13.0 0.00 0.55 0.00 82 1015.7
20260905065556 60 248 7.8 13.0 0.00 0.55 0.00 82 1015.8
20260905065056 60 262 6.1 13.9 0.00 0.55 0.00 82 1015.8
20260905064559 60 234 7.8 14.8 0.00 0.55 0.00 83 1015.7
20260905064058 59 226 6.1 15.6 0.00 0.55 0.00 83 1015.6
20260905063557 59 240 7.0 15.6 0.00 0.55 0.00 84 1015.6
20260905063059 59 254 7.0 15.6 0.00 0.55 0.00 85 1015.5
20260905062557 58 234 6.1 15.6 0.00 0.55 0.00 85 1015.5
20260905062058 58 259 7.0 15.6 0.00 0.55 0.00 85 1015.5
20260905061618 57 221 4.3 10.4 0.00 0.55 0.00 86 1015.5
20260905061057 57 236 3.5 9.6 0.00 0.55 0.00 87 1015.5
20260905060557 57 239 4.3 11.3 0.00 0.55 0.00 87 1015.4
20260905060107 57 266 5.2 11.3 0.00 0.55 0.00 87 1015.4
20260905055558 57 236 6.1 10.4 0.00 0.55 0.00 87 1015.5
20260905055057 56 237 5.2 11.3 0.00 0.55 0.00 87 1015.5
20260905054605 56 240 4.3 11.3 0.00 0.55 0.00 88 1015.4
20260905054058 56 239 6.1 13.0 0.00 0.55 0.00 88 1015.4
20260905053558 56 238 4.3 13.0 0.00 0.55 0.00 88 1015.4
20260905053113 56 247 3.5 10.4 0.00 0.55 0.00 88 1015.4
20260905052558 56 248 6.1 10.4 0.00 0.55 0.00 88 1015.3
20260905052058 56 247 5.2 10.4 0.00 0.55 0.00 88 1015.3
20260905051605 56 254 5.2 9.6 0.00 0.55 0.00 88 1015.2
20260905051057 56 245 5.2 9.6 0.00 0.55 0.00 88 1015.2
20260905050558 56 246 5.2 9.6 0.00 0.55 0.00 88 1015.1
20260905050059 56 232 5.2 8.7 0.00 0.55 0.00 88 1015.1
20260905045557 56 246 3.5 8.7 0.00 0.55 0.00 88 1015.0
20260905045057 56 240 5.2 8.7 0.00 0.55 0.00 88 1015.0
20260905044605 56 238 4.3 9.6 0.00 0.55 0.00 87 1015.0
20260905044058 56 242 4.3 9.6 0.00 0.55 0.00 87 1015.0
20260905043558 56 240 4.3 9.6 0.00 0.55 0.00 87 1015.0
20260905043100 56 250 5.2 11.3 0.00 0.55 0.00 87 1014.9
20260905042601 57 229 6.1 12.2 0.00 0.55 0.00 87 1014.9
20260905042058 57 223 5.2 12.2 0.00 0.55 0.00 87 1014.9
20260905041611 57 269 5.2 12.2 0.00 0.55 0.00 87 1014.7
20260905041058 57 217 4.3 12.2 0.00 0.55 0.00 87 1014.7
20260905040557 57 251 5.2 11.3 0.00 0.55 0.00 87 1014.7
20260905040105 57 243 5.2 11.3 0.00 0.55 0.00 87 1014.7
20260905035558 57 246 7.0 11.3 0.00 0.55 0.00 87 1014.7
20260905035057 57 261 5.2 12.2 0.00 0.55 0.00 87 1014.7
20260905034602 57 264 4.3 12.2 0.00 0.55 0.00 87 1014.7
20260905034057 57 259 5.2 13.9 0.00 0.55 0.00 87 1014.6
20260905033558 57 251 5.2 13.9 0.00 0.55 0.00 87 1014.4
20260905033101 57 237 7.0 12.2 0.00 0.55 0.00 87 1014.4
20260905032558 57 243 6.1 12.2 0.00 0.55 0.00 87 1014.4
20260905032101 57 230 5.2 12.2 0.00 0.55 0.00 87 1014.4
20260905031604 57 255 7.0 12.2 0.00 0.55 0.00 87 1014.3
20260905031057 57 230 7.0 12.2 0.00 0.55 0.00 87 1014.3
20260905030557 57 239 5.2 13.0 0.00 0.55 0.00 86 1014.3
20260905030107 57 252 5.2 13.0 0.00 0.55 0.00 86 1014.2
20260905025558 57 266 5.2 12.2 0.00 0.55 0.00 86 1014.2
20260905025057 57 239 6.1 13.0 0.00 0.55 0.00 86 1014.2
20260905024640 57 248 5.2 13.0 0.00 0.55 0.00 86 1014.1
20260905024102 58 257 6.1 11.3 0.00 0.55 0.00 86 1014.1
20260905023558 58 265 7.8 11.3 0.00 0.55 0.00 86 1014.1
20260905023105 57 252 6.1 13.9 0.00 0.55 0.00 86 1014.1
20260905022557 57 242 6.1 13.9 0.00 0.55 0.00 86 1014.1
20260905022057 58 250 5.2 13.9 0.00 0.55 0.00 85 1014.1
20260905021605 58 231 6.1 10.4 0.00 0.55 0.00 85 1014.1
20260905021057 58 263 6.1 12.2 0.00 0.55 0.00 85 1014.1
20260905020557 58 271 6.1 12.2 0.00 0.55 0.00 85 1014.1
20260905015557 58 211 6.1 13.0 0.00 0.55 0.00 85 1014.0
20260905015059 58 243 5.2 13.0 0.00 0.55 0.00 85 1013.9
20260905014605 58 236 6.1 12.2 0.00 0.55 0.00 85 1013.8
20260905014101 58 240 7.0 13.0 0.00 0.55 0.00 85 1013.8
20260905013558 58 246 7.0 13.0 0.00 0.55 0.00 85 1013.8
20260905013059 58 209 6.1 13.0 0.00 0.55 0.00 85 1013.8
20260905012558 58 240 6.1 13.0 0.00 0.55 0.00 85 1013.8
20260905012058 58 252 6.1 13.0 0.00 0.55 0.00 85 1013.8
20260905011602 58 245 6.1 13.0 0.00 0.55 0.00 85 1013.7
20260905011057 58 244 6.1 11.3 0.00 0.55 0.00 86 1013.8
20260905010601 58 250 5.2 12.2 0.00 0.55 0.00 86 1013.7
20260905010107 58 271 6.1 12.2 0.00 0.55 0.00 85 1013.8
20260905005557 58 268 6.1 12.2 0.00 0.55 0.00 85 1013.7
20260905005058 58 242 5.2 12.2 0.00 0.55 0.00 85 1013.8
20260905004606 58 287 5.2 11.3 0.00 0.55 0.00 85 1013.8
20260905004059 58 257 7.0 12.2 0.00 0.55 0.00 85 1013.7
20260905003557 58 259 7.8 12.2 0.00 0.55 0.00 85 1013.8
20260905003115 58 244 7.0 11.3 0.00 0.55 0.00 85 1013.7
20260905002558 58 259 6.1 13.0 0.00 0.55 0.00 85 1013.8
20260905002058 58 246 7.0 13.0 0.00 0.55 0.00 85 1013.7
20260905001600 58 256 6.1 13.0 0.00 0.55 0.00 85 1013.7
20260905001057 58 236 6.1 13.0 0.00 0.55 0.00 85 1013.7
20260905000558 58 250 5.2 12.2 0.00 0.55 0.00 85 1013.6
20260905000110 58 275 6.1 12.2 0.00 0.55 0.00 85 1013.6
20260904235557 58 283 6.1 13.9 0.00 0.55 0.00 85 1013.5
20260904235057 59 254 7.0 13.9 0.00 0.55 0.00 85 1013.6
20260904234607 59 257 7.0 13.9 0.00 0.55 0.00 85 1013.3
20260904234057 59 268 6.1 12.2 0.00 0.55 0.00 85 1013.3
20260904233557 59 265 6.1 12.2 0.00 0.55 0.00 85 1013.4
20260904233104 59 279 7.0 13.0 0.00 0.55 0.00 85 1013.3
20260904232558 59 265 6.1 14.8 0.00 0.55 0.00 85 1013.3
20260904232057 59 269 5.2 14.8 0.00 0.55 0.00 85 1013.3
20260904231600 59 256 7.0 13.9 0.00 0.55 0.00 85 1013.3
20260904231101 59 270 7.0 17.4 0.00 0.55 0.00 85 1013.2
20260904230558 59 271 8.7 17.4 0.00 0.55 0.00 85 1013.2
20260904230104 59 274 6.1 15.6 0.00 0.55 0.00 85 1013.1
20260904225557 59 260 7.8 13.0 0.00 0.55 0.00 85 1013.1
20260904225057 59 265 7.8 13.9 0.00 0.55 0.00 85 1013.0
20260904224605 59 256 7.0 13.9 0.00 0.55 0.00 85 1012.9
20260904224057 59 267 5.2 13.0 0.00 0.55 0.00 86 1012.9
20260904223557 59 261 6.1 13.9 0.00 0.55 0.00 86 1012.8
20260904223109 59 254 6.1 13.9 0.00 0.55 0.00 85 1012.7
20260904222557 60 230 7.8 14.8 0.00 0.55 0.00 85 1012.7
20260904222100 60 261 7.0 14.8 0.00 0.55 0.00 85 1012.7
20260904221615 60 287 7.8 14.8 0.00 0.55 0.00 86 1012.5
20260904221058 60 277 8.7 14.8 0.00 0.55 0.00 86 1012.5
20260904220558 60 267 7.0 14.8 0.00 0.55 0.00 87 1012.5
20260904220108 60 262 8.7 14.8 0.00 0.55 0.00 87 1012.3
20260904215558 60 261 5.2 13.0 0.00 0.58 0.55 87 1012.2
20260904215057 60 281 6.1 13.0 0.00 0.58 0.55 88 1012.2
20260904214609 60 260 6.1 13.0 0.00 0.58 0.55 88 1012.1
20260904214057 60 317 7.0 13.0 0.00 0.58 0.55 88 1012.0
20260904213557 60 265 7.0 12.2 0.00 0.58 0.55 88 1011.9
20260904213101 60 256 7.0 13.0 0.00 0.58 0.55 89 1011.8
20260904212558 60 261 4.3 13.0 0.00 0.58 0.55 89 1011.7
20260904212056 60 299 6.1 13.0 0.00 0.58 0.55 89 1011.6
20260904211605 60 292 5.2 13.0 0.00 0.58 0.55 89 1011.7
20260904211057 60 267 6.1 14.8 0.00 0.58 0.55 89 1011.7
20260904210559 60 265 5.2 14.8 0.00 0.58 0.55 89 1011.6
20260904210104 60 259 7.8 14.8 0.00 0.58 0.55 89 1011.4
20260904205558 60 274 7.0 14.8 0.00 0.58 0.55 89 1011.5
20260904205057 60 277 6.1 14.8 0.00 0.58 0.55 90 1011.3
20260904204608 60 267 7.0 13.9 0.00 0.58 0.55 90 1011.2
20260904204101 60 239 7.8 13.9 0.00 0.58 0.55 90 1011.2
20260904203558 61 264 5.2 13.0 0.00 0.58 0.55 90 1011.3
20260904203102 61 265 6.1 13.0 0.00 0.58 0.55 90 1011.2
20260904202557 61 267 8.7 13.0 0.00 0.58 0.55 90 1011.1
20260904202100 61 273 6.1 14.8 0.00 0.58 0.55 90 1011.1
20260904201604 61 293 6.1 14.8 0.00 0.58 0.55 90 1011.1
20260904201057 61 265 6.1 15.6 0.00 0.58 0.55 90 1011.0
20260904200556 61 263 7.8 15.6 0.00 0.58 0.55 90 1011.0
20260904200116 61 263 7.0 15.6 0.00 0.58 0.55 90 1010.9
20260904195557 61 253 7.0 13.9 0.00 0.58 0.55 91 1010.9
20260904195058 61 271 7.0 14.8 0.00 0.58 0.55 91 1010.8
20260904194605 61 257 7.8 14.8 0.00 0.58 0.55 91 1010.7
20260904194057 61 284 7.8 13.9 0.00 0.58 0.55 91 1010.8
20260904193557 61 263 7.0 13.9 0.00 0.58 0.55 92 1010.8
20260904193101 61 244 6.1 13.9 0.00 0.58 0.55 92 1010.7
20260904192556 61 261 7.0 13.9 0.00 0.58 0.55 92 1010.8
20260904192056 61 268 6.1 12.2 0.00 0.58 0.55 92 1010.4
20260904191600 61 270 6.1 11.3 0.00 0.58 0.55 92 1010.5
20260904191057 61 277 5.2 12.2 0.00 0.58 0.55 93 1010.6
20260904190558 61 268 7.0 12.2 0.00 0.58 0.55 93 1010.6
20260904190108 61 275 7.0 13.9 0.00 0.58 0.55 93 1010.5
20260904185558 61 251 6.1 13.9 0.00 0.58 0.55 93 1010.4
20260904185057 61 295 6.1 14.8 0.00 0.58 0.55 93 1010.3
20260904184607 61 271 7.8 14.8 0.00 0.58 0.55 93 1010.2
20260904184058 61 267 7.8 14.8 0.00 0.58 0.55 93 1010.3
20260904183557 61 250 7.0 13.0 0.00 0.58 0.55 93 1010.3
20260904183101 61 252 7.8 14.8 0.00 0.58 0.55 93 1010.2
20260904182600 61 254 5.2 14.8 0.00 0.58 0.55 93 1010.3
20260904182056 61 258 8.7 13.9 0.00 0.58 0.55 93 1010.2
20260904181607 61 263 7.8 13.9 0.01 0.58 0.55 93 1009.9
20260904181057 62 269 7.0 14.8 0.02 0.58 0.55 94 1009.8
20260904180559 62 279 6.1 14.8 0.03 0.58 0.55 94 1009.9
20260904180113 62 262 8.7 14.8 0.03 0.58 0.55 94 1009.9
20260904175556 62 275 4.3 12.2 0.04 0.58 0.55 94 1009.9
20260904175057 62 277 7.0 12.2 0.04 0.58 0.55 94 1009.7
20260904174608 62 269 6.1 12.2 0.05 0.58 0.55 95 1009.5
20260904174057 62 266 7.0 13.9 0.06 0.58 0.55 95 1009.3
20260904173557 62 268 7.0 13.9 0.07 0.58 0.55 95 1009.3
20260904173105 62 279 4.3 9.6 0.07 0.58 0.55 95 1009.2
20260904172557 62 269 3.5 9.6 0.09 0.58 0.55 95 1009.1
20260904172058 62 263 4.3 7.8 0.09 0.57 0.55 95 1009.3
20260904171601 62 265 2.6 7.0 0.11 0.56 0.54 95 1009.3
20260904171056 62 273 2.6 7.0 0.14 0.55 0.53 95 1009.1
20260904170558 62 286 1.7 7.0 0.16 0.54 0.51 95 1009.2
20260904170110 62 261 1.7 7.0 0.18 0.54 0.51 94 1009.1
20260904165557 61 241 3.5 7.8 0.20 0.53 0.51 94 1008.8
20260904165057 61 265 3.5 11.3 0.22 0.53 0.51 94 1008.8
20260904164606 61 271 6.1 13.9 0.22 0.52 0.50 94 1008.8
20260904164057 61 273 5.2 13.9 0.22 0.51 0.49 94 1009.0
20260904163557 61 253 7.0 13.9 0.22 0.51 0.48 94 1009.0
20260904163109 61 290 7.0 15.6 0.23 0.50 0.48 94 1009.0
20260904162557 61 258 7.0 15.6 0.24 0.48 0.46 94 1008.9
20260904162057 61 273 7.8 15.6 0.24 0.48 0.45 93 1008.6
20260904161602 61 278 8.7 16.5 0.22 0.45 0.43 93 1008.7
20260904161056 61 249 9.6 19.1 0.18 0.41 0.39 93 1008.8
20260904160559 61 255 8.7 19.1 0.14 0.37 0.35 92 1009.0
20260904160106 61 256 8.7 17.4 0.11 0.35 0.33 92 1008.8
20260904155556 61 244 10.4 20.9 0.10 0.33 0.30 92 1008.7
20260904155058 61 273 12.2 20.9 0.08 0.31 0.29 92 1008.7
20260904154607 61 292 8.7 17.4 0.07 0.30 0.28 92 1008.5
20260904154058 61 284 8.7 17.4 0.07 0.29 0.27 92 1008.6
20260904153558 61 291 7.8 16.5 0.07 0.29 0.26 91 1008.8
20260904153106 61 250 7.8 14.8 0.07 0.26 0.24 90 1009.0
20260904152557 62 276 7.0 14.8 0.06 0.24 0.22 90 1008.9
20260904152059 62 281 8.7 16.5 0.06 0.23 0.21 90 1008.8
20260904151603 62 284 9.6 16.5 0.06 0.23 0.21 90 1008.7
20260904151056 62 267 7.8 14.8 0.06 0.23 0.21 90 1009.0
20260904150556 62 258 7.0 17.4 0.06 0.23 0.21 91 1009.0
20260904150105 62 279 7.0 20.9 0.06 0.23 0.21 90 1008.9
20260904145555 62 271 12.2 24.3 0.05 0.22 0.20 89 1009.3
20260904145057 62 280 12.2 24.3 0.05 0.22 0.20 89 1009.5
20260904144603 63 261 11.3 21.7 0.05 0.22 0.20 89 1009.6
20260904144101 63 281 6.1 21.7 0.04 0.22 0.19 90 1009.6
20260904143557 63 273 7.8 21.7 0.04 0.21 0.18 89 1009.8
20260904143100 63 270 11.3 21.7 0.03 0.19 0.17 89 1009.8
20260904142557 64 286 9.6 21.7 0.14 0.18 0.15 88 1009.5
20260904142057 64 315 7.8 17.4 0.14 0.17 0.14 89 1009.0
20260904141625 63 278 7.8 16.5 0.14 0.17 0.14 89 1009.1
20260904141056 63 248 7.0 16.5 0.14 0.17 0.14 89 1009.1
20260904140556 63 267 8.7 16.5 0.14 0.17 0.14 89 1008.9
20260904140106 63 234 7.8 13.0 0.14 0.17 0.14 89 1008.8
20260904135557 63 260 7.8 13.9 0.14 0.17 0.14 89 1008.5
20260904135058 64 238 9.6 17.4 0.14 0.17 0.14 89 1008.3
20260904134605 64 254 8.7 18.2 0.14 0.17 0.14 89 1008.4
20260904134057 65 269 9.6 20.9 0.14 0.17 0.14 86 1008.3
20260904133557 66 275 10.4 33.9 0.13 0.16 0.14 83 1008.3
20260904133100 70 306 15.6 33.9 0.12 0.15 0.13 72 1008.2
20260904132600 75 263 9.6 23.5 0.00 0.03 0.00 67 1007.4
20260904132057 76 275 14.8 26.9 0.00 0.03 0.00 66 1006.7
20260904131636 76 263 12.2 32.2 0.00 0.03 0.00 65 1006.6
20260904131057 77 299 14.8 33.0 0.00 0.03 0.00 64 1006.6
20260904130556 76 257 18.2 33.0 0.00 0.03 0.00 64 1006.7
20260904130105 76 248 14.8 27.8 0.00 0.03 0.00 64 1006.6
20260904125557 77 253 16.5 28.7 0.00 0.03 0.00 64 1006.6
20260904125057 77 252 10.4 29.5 0.00 0.03 0.00 64 1006.7
20260904124605 77 233 15.6 29.5 0.00 0.03 0.00 64 1006.7
20260904124057 76 247 14.8 28.7 0.00 0.03 0.00 65 1006.7
20260904123558 76 267 13.0 28.7 0.00 0.03 0.00 66 1006.9
20260904123110 76 276 14.8 27.8 0.00 0.03 0.00 66 1006.7
20260904122557 76 248 11.3 22.6 0.00 0.03 0.00 67 1007.0
20260904122101 76 290 13.9 24.3 0.00 0.03 0.00 66 1006.9
20260904121607 76 238 13.9 27.8 0.00 0.03 0.00 67 1007.0
20260904121057 75 268 10.4 27.8 0.00 0.03 0.00 69 1007.1
20260904120600 75 239 13.0 27.8 0.00 0.03 0.00 69 1007.2
20260904120114 75 246 13.0 26.1 0.00 0.03 0.00 69 1007.2
20260904115556 74 254 12.2 22.6 0.00 0.03 0.00 70 1007.2
20260904115058 74 273 12.2 23.5 0.00 0.03 0.00 70 1007.4
20260904114603 74 269 12.2 23.5 0.00 0.03 0.00 71 1007.5
20260904114057 73 235 12.2 20.0 0.00 0.03 0.00 71 1007.5
20260904113556 73 259 13.0 22.6 0.00 0.03 0.00 71 1007.7
20260904113110 73 257 11.3 22.6 0.00 0.03 0.00 72 1007.6
20260904112556 73 256 13.0 22.6 0.00 0.03 0.00 71 1007.6
20260904112057 73 257 9.6 23.5 0.00 0.03 0.00 71 1007.7
20260904111601 73 273 13.0 23.5 0.00 0.03 0.00 71 1007.8
20260904111058 73 263 10.4 20.9 0.00 0.03 0.00 71 1007.8
20260904110558 73 251 12.2 22.6 0.00 0.03 0.00 71 1007.9
20260904110116 73 221 11.3 22.6 0.00 0.03 0.00 71 1007.9
20260904105556 72 264 11.3 21.7 0.00 0.03 0.00 71 1007.8
20260904105056 72 244 10.4 26.1 0.00 0.03 0.00 71 1008.1
20260904104612 72 235 11.3 26.1 0.00 0.03 0.00 72 1008.0
20260904104058 72 241 10.4 24.3 0.00 0.03 0.00 72 1008.0
20260904103558 72 247 12.2 24.3 0.00 0.03 0.00 71 1008.0
20260904103108 72 280 10.4 19.1 0.00 0.03 0.00 72 1008.1
20260904102557 72 274 11.3 25.2 0.00 0.03 0.00 72 1008.1
20260904102057 72 238 12.2 25.2 0.00 0.03 0.00 72 1008.1
20260904101604 73 238 11.3 27.8 0.00 0.03 0.00 72 1008.2
20260904101056 73 223 12.2 27.8 0.00 0.03 0.00 72 1008.3
20260904100556 72 244 13.0 27.8 0.00 0.03 0.00 73 1008.1
20260904100111 72 261 12.2 21.7 0.00 0.03 0.00 73 1008.2